Location: Unspecified
(0.0000°N, 0.0000°E)
Time: 14:58:14
(UTC+00:00)

N. Korean satellite - Pass Details

Date: 10 April 2021
Orbit: 452 x 499 km, 97.2° (Epoch: 15 April)

Event Time Altitude Azimuth Distance (km) Brightness Sun altitude
Rises 04:08:46 0° 46° (NE) 2,525 11.0 -27.8°
Reaches altitude 10° 04:12:04 10° 80° (E) 1,638 10.2 -27.0°
Maximum altitude 04:13:19 12° 101° (E) 1,538 9.9 -26.7°
Drops below altitude 10° 04:14:35 10° 122° (ESE) 1,632 9.8 -26.4°
Sets 04:17:49 0° 156° (SSE) 2,499 10.4 -25.6°
